Location: Chihuahua
(28.6330°N, 106.0830°W)
Time: 19:20:16
(UTC-07:00)

Daily predictions for brighter satellites

Satellite Brightness Start Highest point End
(mag) Time Altitude Azimuth Time Altitude Azimuth Time Altitude Azimuth
Cosmos 1500 3.9 19:16:51 10° NNE 19:20:27 35° E 19:24:01 10° SSE
COSMOS 2455 4.3 19:18:19 10° SE 19:21:32 15° ESE 19:24:44 10° ENE
Milstar 3 Cent rocket 2.9 19:11:30 10° W 19:21:58 82° S 19:27:27 10° ESE
GPS 2-15 Rocket1 4.3 19:18:47 10° SW 19:22:52 28° S 19:27:01 10° ESE
ATLAS 3B CENTAUR R/B 3.3 19:20:34 10° WSW 19:23:25 22° S 19:28:48 10° SE
Resurs 01 Rocket 2.8 19:21:56 10° S 19:26:11 45° W 19:30:28 10° NNW
Lacrosse 5 rocket 4.0 19:24:04 10° WSW 19:27:09 23° NW 19:30:20 10° N
Cosmos 1025 Rocket 3.1 19:24:30 10° S 19:28:50 65° E 19:33:10 10° NNE
Cosmos 1242 Rocket 4.5 19:25:28 10° SSW 19:28:54 35° W 19:32:21 10° NNW
ATLAS 3B R/B 4.5 19:28:42 10° SE 19:31:16 12° ESE 19:33:50 10° E
Cosmos 1743 3.7 19:29:41 10° NNE 19:33:01 28° E 19:36:18 10° SE
Cosmos 2251 Rocket 3.6 19:28:45 10° SSW 19:34:02 85° WNW 19:39:24 10° NNE
Meteor 1-13 Rocket 4.4 19:29:16 10° S 19:35:07 84° W 19:40:53 10° N
Cosmos 1892 Rocket 3.7 19:33:00 10° S 19:37:17 53° E 19:41:38 10° NNE
Cosmos 2098 Rocket 2.8 19:35:06 10° N 19:38:46 74° E 19:43:24 10° S
Centaur D AC-28 1.7 19:33:54 10° W 19:39:33 75° S 19:42:46 12° ESE
ERS-1 Rocket 4.0 19:36:58 11° SE 19:41:05 29° ENE 19:45:23 10° NNE
USA 186 1.8 19:39:28 10° SSE 19:42:22 48° ENE 19:45:06 10° N
Cosmos 1603 4.4 19:37:55 10° SSE 19:42:47 31° ESE 19:47:38 10° NE
Intelsat 5-2 Rocket 3.9 19:45:42 10° SW 19:47:19 15° SSW 19:48:20 13° SSE
Okean 2 3.6 19:46:43 10° SSE 19:50:45 50° E 19:54:49 10° NNE
Meteor 2-17 Rocket 4.5 19:44:47 10° N 19:50:54 67° E 19:56:59 10° SSE
Cosmos 1110 Rocket 4.4 19:47:58 10° N 19:53:04 47° ENE 19:56:56 16° SE
Meteor 2-4 Rocket 3.8 19:48:24 10° S 19:54:09 69° E 20:00:02 10° NNE
Meteor 1-19 Rocket 4.4 19:51:13 10° S 19:56:52 78° W 20:02:28 10° N
Delta 168 3.0 19:55:54 10° WSW 19:59:11 45° S 20:01:43 20° ESE
H-2A R/B 2.8 19:57:55 10° S 20:01:49 85° W 20:05:47 10° NNW
ISS -3.3 19:59:12 10° SSW 20:02:22 54° SE 20:05:34 10° NE
OTV 4 1.4 20:00:36 10° W 20:03:22 35° SSW 20:04:31 25° SSE
BREEZE-M DEB (TANK) 4.2 19:54:36 10° SW 20:03:36 53° NW 20:06:33 10° NNE
Cosmos 1844 Rocket 4.5 19:59:45 10° NW 20:04:31 28° WSW 20:09:14 10° SSW
Cosmos 2297 3.9 19:59:02 10° N 20:04:40 58° ENE 20:08:32 20° SE
FENGYUN 3A 3.7 19:59:54 10° S 20:05:16 84° WSW 20:10:40 10° NNW
CZ-2C R/B 0.5 20:06:31 49° ESE 20:06:45 53° ENE 20:09:00 10° N
Cosmos 1726 Rocket 3.5 20:03:21 10° N 20:07:47 80° E 20:11:20 15° S
CZ-4 DEB 3.6 20:07:42 12° S 20:10:34 49° W 20:13:42 10° NNW
deb Centaur AC-2 4.5 20:11:22 10° WSW 20:16:22 90° SSE 20:21:39 14° E
SPOT 5 3.8 20:15:34 23° E 20:16:36 26° ENE 20:20:12 10° NNE
YAOGAN 11 4.4 20:15:54 14° S 20:19:34 66° WSW 20:23:53 10° NNW
Cosmos 1602 Rocket 3.6 20:17:41 23° SSE 20:20:19 57° E 20:24:43 10° NNE
Hubble Space Telescope 3.0 20:19:09 10° WSW 20:21:16 14° SSW 20:22:18 13° S
Cosmos 2058 Rocket 2.9 20:17:17 10° N 20:21:40 88° E 20:24:15 24° S
Cosmos 2285 Rocket 4.0 20:16:33 10° N 20:22:51 68° ENE 20:26:36 26° SSE
GEOS 3 Rocket 3.6 20:19:48 24° SSE 20:23:03 86° WSW 20:28:19 10° NNW
Aureole 2 Rocket 3.8 20:20:38 10° SSW 20:24:36 46° WNW 20:28:15 10° N
ALOS 3.5 20:23:22 10° SSW 20:27:43 39° W 20:32:05 10° NNW
Cosmos 1464 Rocket 3.9 20:27:20 10° N 20:33:30 89° E 20:37:46 21° S
Cosmos 1812 Rocket 4.4 20:33:46 10° NNE 20:37:38 33° ENE 20:37:38 33° ENE
Fermi 3.8 20:36:55 10° WSW 20:40:52 55° S 20:40:52 55° S
H-2A R/B 2.4 20:42:31 34° SSW 20:44:10 61° WSW 20:48:25 10° NNW
Cosmos 2278 Rocket 4.0 20:39:46 10° NW 20:44:24 26° WSW 20:49:01 10° SSW
PSLV R/B 4.3 20:48:37 37° NNE 20:48:37 37° NNE 20:50:41 10° N
SeaSat 1 2.8 20:47:09 42° E 20:48:00 47° ENE 20:52:43 10° N
Atlas Centaur 2 2.9 20:43:50 10° WSW 20:51:25 89° N 20:58:15 18° E
Cosmos 2034 Rocket 4.0 20:45:48 10° N 20:52:11 87° W 20:55:16 33° S
ARGOS 4.2 20:52:05 28° ENE 20:52:19 28° ENE 20:56:52 10° NNE
Cosmos 1626 Rocket 4.2 20:50:39 22° SSW 20:53:22 54° W 20:57:43 10° N
Cosmos 1939 Rocket 3.2 20:53:32 49° SSW 20:54:25 62° W 20:58:32 10° NNW
Cosmos 1666 3.3 20:50:55 10° NNW 20:54:43 53° W 20:55:25 45° SW
Cosmos 2369 Rocket 3.9 20:54:14 10° NNE 20:58:04 18° ENE 20:58:16 18° ENE
Cosmos 1302 Rocket 4.0 20:52:53 10° NNW 20:58:08 78° WSW 20:59:28 51° S
CZ-4B R/B 3.4 20:56:06 10° NNE 21:01:15 88° ESE 21:02:50 46° SSW
COSMOS 2455 3.3 21:00:57 10° SW 21:06:51 59° WNW 21:12:47 10° NNE
OAO 3 Copernicus 4.5 21:04:44 10° WNW 21:09:44 64° NNE 21:10:17 59° NE
MetOp-B 4.0 21:09:21 69° SE 21:09:59 81° ENE 21:15:21 10° N
Cosmos 2228 4.4 21:06:40 10° NNW 21:10:40 34° W 21:12:01 28° SW
Meteor 2-12 Rocket 4.3 21:09:47 10° N 21:15:52 77° E 21:16:38 67° SE
APEX 4.5 21:12:47 10° NNW 21:17:18 53° WSW 21:18:07 48° SW
ATLAS 3B R/B 2.8 21:13:23 10° SSW 21:21:04 86° ESE 21:28:45 10° NNE
Cosmos 2346 Rocket 4.3 21:20:59 66° SSE 21:21:56 83° E 21:28:07 10° N
Envisat 3.8 21:22:53 38° SW 21:23:56 43° W 21:28:45 10° NNW
Cosmos 1066 Rocket 4.1 21:25:40 81° SSW 21:25:59 89° W 21:31:46 10° N
Cosmos 407 Rocket 4.0 21:29:34 51° NE 21:29:34 51° NE 21:33:32 10° NNE
Lacrosse 4 Rocket 3.7 21:35:28 17° NNE 21:35:28 17° NNE 21:36:31 10° NNE
USA 234 3.6 21:33:09 48° ENE 21:34:13 53° NE 21:40:34 10° NNW
ISS 0.3 21:37:58 10° NW 21:39:02 11° NW 21:40:05 10° NNW
USA 81 4.5 21:44:10 10° N 21:48:44 59° NW 21:48:44 59° NW
Cosmos 1943 4.2 21:49:01 31° WSW 21:51:04 42° WNW 21:56:27 10° N
USA 238 DEB 4.4 21:58:20 43° NE 21:58:20 43° NE 22:03:03 10° NE
USA 238 4.4 21:58:30 42° NE 21:58:30 42° NE 22:03:08 10° NE
Milstar 3 Cent rocket 4.1 21:54:49 10° W 21:56:45 17° WSW 21:56:45 17° WSW
Cosmos 1943 Rocket 3.9 22:02:03 10° N 22:05:02 23° NE 22:05:02 23° NE
H-2A R/B 3.3 22:09:27 35° N 22:09:27 35° N 22:12:21 10° N
Terra 3.6 22:18:26 29° NNW 22:18:26 29° NNW 22:20:46 10° NNW
Atlas Centaur 2 3.1 22:33:27 10° W 22:40:54 73° NW 22:40:54 73° NW
Cosmos 2369 Rocket 3.7 22:36:53 10° NNW 22:40:04 31° NW 22:40:04 31° NW
